This demonstration page uses our WeatherBlox Daily Observations layout. Learn more.

Left ArrowRight Arrow

40.92945, -100.16068

Hourly Observations for November 7, 2019

Temp ( °F °C ) Dew Point ( °F °C ) Humidity (%) Winds ( mph kmh ) Pressure ( in mb ) Visibility ( mi km ) Precip ( " mm )
12:15 am 00:15 Cloudy 23 -5 18 -8 80 80 N 14 22 30.71 1040 10 16.0934 0 0
12:35 am 00:35 Cloudy 23 -5.1 18 -8 80 80 N 14 22 30.72 1040 10 16.0934 0 0
12:55 am 00:55 Cloudy 22 -5.5 17 -8.6 79 79 N 14 22 30.74 1041 10 16.0934 0 0
1:15 am 01:15 Mostly Cloudy 21 -6 15 -9.6 76 76 N 13 20 30.74 1041 10 16.0934 0 0
1:35 am 01:35 Partly Cloudy 20 -6.5 13 -10.8 72 72 N 15 24 30.75 1041 10 16.0934 0 0
1:55 am 01:55 Clear 19 -7.2 11 -11.6 71 71 N 13 20 30.74 1041 10 16.0934 0 0
2:15 am 02:15 Clear 18 -7.7 11 -11.5 74 74 N 8 13 30.76 1042 10 16.0934 0 0
2:35 am 02:35 Clear 17 -8.1 11 -11.6 76 76 N 9 15 30.76 1042 10 16.0934 0 0
2:55 am 02:55 Clear 17 -8.5 10 -12 76 76 N 9 15 30.77 1042 10 16.0934 0 0
3:15 am 03:15 Clear 16 -9 10 -12 79 79 NNE 6 9 30.77 1042 10 16.0934 0 0
3:35 am 03:35 Clear 15 -9.6 10 -12 83 83 N 7 11 30.78 1042 10 16.0934 0 0
3:55 am 03:55 Clear 13 -10.3 10 -12.1 87 87 N 3 6 30.79 1043 10 16.0934 0 0
4:15 am 04:15 Clear 13 -10.5 10 -12.2 87 87 Calm 30.79 1043 10 16.0934 0 0
4:35 am 04:35 Clear 14 -10.2 10 -12.1 86 86 Calm 30.79 1043 10 16.0934 0 0
4:55 am 04:55 Clear 13 -10.6 10 -12.2 88 88 Calm 30.79 1043 10 16.0934 0 0
5:15 am 05:15 Clear 13 -10.8 10 -12.2 90 90 W 3 6 30.8 1043 10 16.0934 0 0
5:35 am 05:35 Clear 12 -11 10 -12.4 90 90 Calm 30.8 1043 10 16.0934 0 0
5:55 am 05:55 Clear 12 -11 10 -12.5 89 89 W 5 7 30.81 1043 10 16.0934 0 0
6:15 am 06:15 Clear 12 -11.1 9 -12.8 87 87 W 3 6 30.8 1043 10 16.0934 0 0
6:35 am 06:35 Clear 11 -11.5 8 -13.1 88 88 W 5 7 30.8 1043 10 16.0934 0 0
6:55 am 06:55 Clear 11 -11.5 9 -13 89 89 Calm 30.79 1043 10 16.0934 0 0
7:15 am 07:15 Clear 11 -11.5 9 -12.8 90 90 SW 3 6 30.79 1043 10 16.0934 0 0
7:35 am 07:35 Sunny 12 -11.3 9 -12.7 90 90 W 3 6 30.79 1043 10 16.0934 0 0
7:55 am 07:55 Sunny 13 -10.5 10 -12 89 89 Calm 30.78 1042 10 16.0934 0 0
8:15 am 08:15 Sunny 15 -9.2 11 -11.4 84 84 WSW 3 6 30.77 1042 10 16.0934 0 0
8:35 am 08:35 Sunny 17 -8.6 11 -11.6 79 79 W 3 6 30.77 1042 10 16.0934 0 0
8:55 am 08:55 Sunny 18 -8 12 -11.3 77 77 Calm 30.76 1042 10 16.0934 0 0
9:15 am 09:15 Sunny 19 -7.1 12 -10.9 75 75 SW 5 7 30.75 1041 10 16.0934 0 0
9:35 am 09:35 Sunny 20 -6.5 11 -11.9 66 66 WSW 5 7 30.74 1041 10 16.0934 0 0
9:55 am 09:55 Sunny 22 -5.5 11 -11.8 62 62 WSW 7 11 30.73 1040 10 16.0934 0 0
10:15 am 10:15 Sunny 24 -4.7 11 -11.7 58 58 W 8 13 30.72 1040 10 16.0934 0 0
10:35 am 10:35 Sunny 25 -4 11 -11.4 57 57 W 8 13 30.7 1040 10 16.0934 0 0
10:55 am 10:55 Sunny 26 -3.5 12 -10.9 57 57 SW 8 13 30.68 1039 10 16.0934 0 0
11:15 am 11:15 Sunny 27 -2.6 14 -9.8 58 58 SW 8 13 30.67 1038 10 16.0934 0 0
11:35 am 11:35 Sunny 28 -2 17 -8.6 61 61 SW 10 17 30.65 1038 10 16.0934 0 0
11:55 am 11:55 Sunny 29 -1.4 19 -7.3 65 65 SW 9 15 30.63 1037 10 16.0934 0 0
12:15 pm 12:15 Sunny 30 -1.2 20 -6.9 66 66 W 8 13 30.62 1037 10 16.0934 0 0
12:35 pm 12:35 Sunny 32 -0.1 21 -6.3 63 63 SW 10 17 30.6 1036 10 16.0934 0 0
12:55 pm 12:55 Sunny 33 0.6 22 -5.8 63 63 WSW 10 17 30.57 1035 10 16.0934 0 0
1:15 pm 13:15 Sunny 34 1.1 22 -5.4 62 62 WSW 9 15 30.56 1035 10 16.0934 0 0
1:35 pm 13:35 Sunny 35 1.8 22 -5.3 60 60 W 12 19 30.54 1034 10 16.0934 0 0
1:55 pm 13:55 Sunny 36 2.3 23 -5.1 58 58 WSW 6 9 30.52 1033 10 16.0934 0 0
2:15 pm 14:15 Sunny 37 3 23 -4.8 57 57 W 10 17 30.51 1033 10 16.0934 0 0
2:35 pm 14:35 Sunny 39 3.7 24 -4.4 56 56 WSW 8 13 30.49 1033 10 16.0934 0 0
2:55 pm 14:55 Sunny 40 4.4 25 -4 55 55 WSW 7 11 30.48 1032 10 16.0934 0 0
3:15 pm 15:15 Sunny 40 4.6 25 -3.9 54 54 W 10 17 30.46 1032 10 16.0934 0 0
3:35 pm 15:35 Sunny 40 4.7 25 -3.9 54 54 W 8 13 30.46 1032 10 16.0934 0 0
3:55 pm 15:55 Sunny 41 5 25 -3.8 53 53 WSW 7 11 30.46 1031 10 16.0934 0 0
4:15 pm 16:15 Sunny 41 5.1 26 -3.6 54 54 SW 8 13 30.46 1031 10 16.0934 0 0
4:35 pm 16:35 Sunny 41 4.8 25 -3.7 54 54 WSW 7 11 30.46 1032 10 16.0934 0 0
4:55 pm 16:55 Sunny 40 4.4 26 -3.6 56 56 SW 7 11 30.45 1031 10 16.0934 0 0
5:15 pm 17:15 Sunny 38 3.4 25 -3.8 60 60 SSW 6 9 30.46 1032 10 16.0934 0 0
5:35 pm 17:35 Clear 34 1.3 24 -4.4 66 66 SSW 6 9 30.49 1032 10 16.0934 0 0
5:55 pm 17:55 Clear 32 0 23 -5 69 69 S 6 9 30.5 1033 10 16.0934 0 0
6:15 pm 18:15 Clear 31 -0.7 23 -5.2 72 72 S 7 11 30.51 1033 10 16.0934 0 0
6:35 pm 18:35 Clear 30 -1.2 22 -5.5 73 73 S 5 7 30.52 1034 10 16.0934 0 0
6:55 pm 18:55 Clear 29 -1.4 22 -5.3 75 75 SSE 6 9 30.51 1033 10 16.0934 0 0
7:15 pm 19:15 Clear 29 -1.4 22 -5.3 75 75 S 5 7 30.51 1033 10 16.0934 0 0
7:35 pm 19:35 Clear 28 -2.3 22 -5.5 79 79 S 3 6 30.52 1034 10 16.0934 0 0
7:55 pm 19:55 Clear 28 -2.4 22 -5.5 80 80 S 3 6 30.52 1034 10 16.0934 0 0
8:15 pm 20:15 Clear 27 -2.6 22 -5.6 80 80 S 3 6 30.51 1033 10 16.0934 0 0
8:35 pm 20:35 Clear 28 -2.5 22 -5.5 80 80 S 5 7 30.51 1033 10 16.0934 0 0
8:55 pm 20:55 Clear 27 -2.8 22 -5.8 80 80 S 6 9 30.52 1033 10 16.0934 0 0
9:15 pm 21:15 Clear 28 -2.4 22 -5.6 79 79 SSW 5 7 30.51 1033 10 16.0934 0 0
9:35 pm 21:35 Clear 27 -2.9 21 -5.9 80 80 S 3 6 30.52 1033 10 16.0934 0 0
9:55 pm 21:55 Clear 26 -3.1 22 -5.8 82 82 SSW 3 6 30.52 1034 10 16.0934 0 0
10:15 pm 22:15 Clear 28 -2.1 23 -5.2 80 80 SSW 8 13 30.51 1033 10 16.0934 0 0
10:35 pm 22:35 Clear 31 -0.8 23 -4.8 75 75 SSW 8 13 30.49 1032 10 16.0934 0 0
10:55 pm 22:55 Clear 31 -0.4 23 -5 71 71 SSW 8 13 30.48 1032 10 16.0934 0 0
11:15 pm 23:15 Clear 29 -1.8 22 -5.5 76 76 SSW 6 9 30.5 1033 10 16.0934 0 0
11:35 pm 23:35 Clear 28 -2.2 22 -5.7 77 77 S 3 6 30.49 1033 10 16.0934 0 0
11:55 pm 23:55 Clear 28 -2.5 21 -6.1 77 77 Calm 30.49 1033 10 16.0934 0 0

Powered by AerisWeather